Location: Central Falls
(41.8900°N, 71.3929°W)
Time: 07:58:33
(UTC+00:00)

Altair - Pass Details

Date: 14 December 2023
Orbit: 1501 x 1682 km, 47.2° (Epoch: 29 February)

Event Time Altitude Azimuth Distance (km) Brightness Sun altitude
Rises 11:16:06 0° 246° (WSW) 4,888 9.7 -9.0°
Reaches altitude 10° 11:19:16 10° 248° (WSW) 3,884 9.2 -8.4°
Maximum altitude 11:29:14 84° 337° (NNW) 1,614 7.6 -6.8°
Drops below altitude 10° 11:38:50 10° 66° (ENE) 3,748 10.2 -5.1°
Sets 11:41:51 0° 68° (ENE) 4,711 10.7 -4.6°
